sat.trackr.live / text

‹ back to catalog

SWAS

NORAD 25560 · 1998-071A

PAYLOAD ACTIVE UNKNOWN

§ Identity

Operator
Country
US
Launch date
1998-12-06
Launch site
WRAS
Launch vehicle
Mass (kg)
RCS (m²)
1.81

Purposes: science

External: N2YO · Heavens-Above · Gunter

§ Orbital elements

Epoch: 2026-05-24T19:45:24.377184Z

Period
95.40 min
Inclination
69.8960°
Eccentricity
0.0008572
Mean motion
15.09424869 rev/d
Perigee alt
532.0 km
Apogee alt
543.9 km
Semi-major
6,916.1 km
B*
2.0622e-4
RAAN
287.7620°
Arg perigee
281.4482°
Mean anomaly
78.5719°
Rev number
49,374

§ Raw data

SWAS1 25560U 98071A   26144.82319881  .00003204  00000+0  20622-3 0  99932 25560  69.8960 287.7620 0008572 281.4482  78.5719 15.09424869493743

JSON: /api/v1/satellites/25560 · /tle

For live sub-satellite position, see the globe view (requires WebGL).

§ Visibility from observer

Set your observer location to see the next 7 days of passes ≥ 10°. The values pass through the URL so the page stays shareable.

No JS? Fill the form by hand. The geolocation button needs JavaScript.